GFSNE_925_spd_336.txt.gz
Wind_Speed
24 21 25 25 24 24 23 23 11 3 4 5 4 3 2 3 5 10 13 13 15 21 28 31 35 34 36 35 33 30 27 26 25 24 24 25 24 23
19 21 22 25 24 23 23 24 21 15 5 7 7 8 7 9 8 10 12 11 13 14 20 29 32 36 36 36 37 35 32 30 29 28 26 25 25 25
15 19 22 25 23 24 23 23 24 21 12 14 15 12 10 11 9 11 13 14 12 12 16 22 29 33 37 38 37 37 35 34 33 32 31 30 28 27
12 17 24 23 24 24 23 24 24 24 19 20 20 17 13 10 10 12 12 13 13 11 11 15 22 30 35 35 36 38 39 39 39 37 35 33 33 32
10 13 20 20 22 23 24 22 23 22 23 22 24 18 12 10 10 11 12 12 13 12 11 11 13 21 27 26 31 31 32 34 37 38 38 36 35 34
22 20 20 23 24 26 25 22 20 20 17 12 24 24 15 13 12 11 13 13 13 13 12 12 11 16 21 22 23 28 32 34 35 36 38 38 37 37
25 25 27 23 20 19 18 21 20 19 19 16 20 15 14 12 13 12 15 12 12 14 15 16 16 17 22 24 16 18 28 32 36 37 39 40 40 40
25 23 20 21 19 16 14 14 17 21 21 21 16 16 18 20 18 16 15 8 5 12 17 18 19 22 23 24 30 29 28 29 31 34 37 39 40 41
17 15 17 18 14 16 15 15 17 15 23 22 19 28 28 25 20 17 18 14 11 9 13 10 14 19 21 22 23 24 25 30 30 31 32 32 34 36
15 11 13 18 14 12 13 16 14 11 9 8 15 34 32 25 21 17 16 18 17 15 14 8 14 17 14 16 15 17 19 25 26 26 28 30 31 30
17 16 16 19 17 15 17 15 14 17 9 10 9 29 26 22 18 17 16 13 10 10 18 9 10 15 12 13 13 15 18 19 22 23 23 23 26 27
19 21 21 20 18 15 16 14 17 21 17 17 9 24 23 20 14 16 18 16 12 5 15 13 13 10 4 8 9 10 15 17 21 24 26 24 26 25
25 28 26 21 19 17 15 18 21 22 22 15 19 22 19 16 15 15 22 24 18 17 9 17 11 11 7 5 7 7 8 10 11 11 13 20 23 20
26 28 28 25 21 20 19 20 18 19 21 19 18 21 21 18 16 15 17 21 24 27 20 16 11 15 11 5 6 8 12 13 12 10 7 4 3 2
23 26 26 26 25 22 22 22 22 23 22 19 21 21 15 10 9 12 14 17 20 23 22 24 22 17 17 12 6 8 8 12 14 13 12 12 10 7
21 22 24 24 21 20 22 23 25 26 24 23 21 17 10 7 7 11 12 14 17 19 20 20 23 22 18 21 16 11 12 6 11 15 14 12 10 8
28 28 25 19 20 21 22 23 23 26 26 27 24 21 16 11 9 8 11 12 14 12 15 15 21 22 20 16 13 15 14 13 11 9 10 10 8 9
28 21 21 21 21 22 22 25 24 23 27 30 28 23 19 15 12 9 9 13 15 15 16 16 19 18 12 13 15 8 12 13 12 12 12 10 8 8
28 26 23 25 25 24 25 25 24 30 27 29 30 27 22 18 13 12 11 13 15 14 16 19 24 16 7 7 7 15 11 14 18 14 13 10 13 15
29 25 25 26 27 25 26 27 28 31 30 28 30 30 26 23 17 15 14 15 15 12 13 19 23 19 15 9 8 11 16 18 18 19 17 14 17 17
24 26 28 27 26 27 26 26 25 24 28 28 27 29 27 22 20 18 16 15 16 13 14 18 23 22 16 12 9 7 12 15 19 22 21 21 17 11
27 25 26 28 29 28 28 26 24 25 25 26 26 28 28 24 21 18 17 16 19 18 15 14 18 17 19 13 12 13 14 15 13 13 18 10 10 8
28 29 28 26 28 27 26 26 25 26 25 26 23 23 21 18 19 19 18 19 18 17 18 17 20 23 17 14 21 20 17 19 16 18 14 11 10 9

GFSNE_925_spd_339.txt.gz
Wind_Speed
19 18 20 14 12 13 14 14 14 8 8 6 5 6 5 7 9 13 16 18 22 27 29 31 32 36 37 37 35 32 29 28 29 29 29 28 27 26
22 22 20 14 10 12 14 15 17 17 7 8 11 11 11 11 10 12 15 15 17 20 23 27 32 34 37 38 39 37 35 32 30 28 29 30 29 29
14 14 18 14 13 15 14 14 15 17 14 19 18 16 15 13 13 13 15 17 17 18 19 23 26 32 36 39 40 41 39 38 35 33 31 29 29 29
9 8 13 13 15 14 16 21 20 16 17 19 16 16 17 14 13 14 14 16 17 18 17 20 24 27 34 37 40 40 41 42 41 39 36 35 34 33
11 12 13 11 12 12 13 12 15 20 20 17 14 10 13 13 14 12 14 16 16 19 17 18 19 25 30 35 38 41 42 41 41 42 40 40 39 38
13 15 19 14 16 16 15 17 17 14 14 15 16 16 12 13 16 14 14 16 16 16 17 18 19 19 23 29 36 38 43 45 45 46 46 46 45 43
15 15 15 13 18 18 15 14 14 12 14 16 17 12 10 10 12 14 18 15 17 15 15 15 18 21 23 22 26 33 37 39 40 41 41 42 43 44
17 15 12 12 14 14 13 15 16 15 16 16 18 14 17 19 15 17 17 12 14 16 18 16 18 20 19 23 25 28 28 33 37 38 39 40 40 41
15 14 12 8 11 8 10 13 15 17 20 15 16 17 13 13 11 16 20 18 18 9 17 14 18 24 26 23 28 32 31 30 29 32 35 34 39 41
14 15 15 12 8 9 10 9 11 12 12 11 18 18 16 11 13 15 23 25 22 15 14 12 13 17 16 20 27 29 31 31 31 33 33 33 34 35
16 17 17 17 18 15 14 13 13 10 9 8 9 14 11 11 19 19 19 20 17 18 16 16 12 11 13 16 17 21 25 25 26 29 31 31 31 31
14 18 21 21 19 16 16 14 16 13 8 6 12 13 15 11 10 19 22 20 15 8 14 13 16 11 7 11 14 13 20 23 24 24 27 28 28 29
17 18 18 20 19 18 17 19 19 15 12 11 13 15 15 12 9 14 21 18 17 18 11 12 9 12 11 5 8 11 10 11 17 20 23 26 29 31
20 21 18 18 18 18 20 23 22 21 21 15 14 14 17 7 7 14 16 17 18 19 13 14 16 16 16 15 13 12 13 12 11 10 11 13 12 11
18 19 22 22 21 22 24 24 24 23 21 16 17 16 12 11 12 15 14 15 16 17 18 21 21 20 20 20 15 13 12 16 14 13 11 14 12 12
18 19 20 22 22 22 22 21 23 19 21 20 20 17 13 13 15 13 12 11 11 14 18 21 23 23 22 21 19 13 13 9 12 12 12 10 11 10
27 25 24 23 22 17 16 16 15 15 17 20 20 20 18 16 16 15 16 13 13 9 12 15 16 23 27 20 14 17 15 12 10 12 14 12 15 16
26 24 24 24 24 25 23 22 21 19 19 19 21 22 22 21 20 18 17 17 15 14 14 13 14 17 20 22 22 16 15 13 12 12 10 9 8 10
22 25 26 26 26 25 26 26 25 23 22 21 21 21 23 25 22 20 19 19 17 14 15 13 18 17 7 9 10 21 15 15 14 13 12 12 10 9
23 27 28 26 26 26 26 27 27 24 23 23 24 24 22 24 23 20 19 18 17 14 13 17 19 23 20 13 12 13 24 16 17 16 15 11 14 14
27 27 25 26 26 26 26 27 27 25 25 23 22 24 25 23 25 24 22 21 18 15 16 18 21 24 21 11 9 8 14 18 17 19 19 16 16 13
25 28 29 28 26 24 24 24 25 25 23 24 24 22 23 23 23 24 24 22 19 19 18 15 13 18 20 17 15 16 15 15 17 20 22 16 15 13
25 26 28 27 26 24 23 24 24 24 23 24 25 22 21 22 21 21 22 21 21 19 17 16 16 16 17 19 17 18 16 21 20 17 15 10 12 10

GFSNE_925_spd_342.txt.gz
Wind_Speed
17 20 19 16 16 19 17 14 11 6 8 2 4 8 9 9 11 11 13 18 22 30 32 34 35 37 38 40 38 35 33 31 31 31 30 29 29 28
15 16 17 17 14 14 17 16 13 13 6 13 9 9 9 12 12 12 13 17 22 23 30 32 33 34 36 38 40 40 37 35 33 33 33 31 31 31
9 6 8 9 12 16 16 17 16 15 14 14 11 13 14 16 16 16 14 16 18 21 24 27 30 32 34 36 38 40 42 39 36 33 32 33 33 33
9 8 5 5 10 14 18 19 20 18 18 16 14 12 14 14 20 21 18 16 18 21 22 25 27 28 30 34 38 42 43 44 42 39 37 35 33 32
13 13 13 13 18 15 13 16 17 17 18 18 17 14 15 15 18 17 18 19 18 20 23 23 25 27 29 30 35 39 43 43 43 44 42 41 38 36
14 16 16 17 17 17 18 18 18 19 18 18 20 18 15 12 13 15 13 15 18 18 19 20 21 26 26 27 30 36 41 44 44 45 46 45 44 43
15 17 18 20 21 19 17 17 17 17 17 17 21 15 11 8 9 8 12 16 18 18 17 18 19 20 23 25 27 33 38 42 46 47 46 47 47 47
17 17 18 19 19 18 15 16 19 16 16 18 15 14 15 17 10 9 11 9 9 15 19 20 20 21 20 19 22 25 31 40 45 46 48 49 48 48
16 15 16 15 14 12 13 14 16 19 21 18 18 16 14 16 18 13 15 13 16 18 11 19 20 22 21 21 24 24 26 28 32 39 43 44 45 45
16 17 17 16 16 12 10 12 13 12 16 17 20 19 12 12 14 14 11 11 12 17 17 15 16 21 19 22 25 28 29 32 32 30 31 37 39 42
17 17 18 18 19 21 15 16 16 15 13 16 17 15 13 13 14 10 12 10 9 16 17 19 18 20 19 21 21 25 28 30 35 38 38 37 37 37
18 18 20 22 21 24 20 17 19 16 14 13 11 15 15 15 13 12 9 12 4 11 12 19 21 14 10 20 21 19 22 26 28 31 34 35 34 34
20 21 21 18 19 20 21 20 23 17 15 16 18 17 15 15 19 23 16 13 13 17 29 17 17 17 22 18 10 16 17 14 20 26 30 31 31 32
22 23 22 22 16 18 23 24 25 23 20 22 21 21 21 20 19 23 27 24 25 26 21 15 20 22 13 17 18 15 17 16 13 13 13 18 27 28
20 23 25 27 28 28 28 30 30 24 23 24 24 24 22 22 20 19 21 23 23 26 24 22 24 22 20 18 19 21 13 14 16 16 16 13 11 19
21 22 20 19 23 28 30 27 24 25 27 27 27 27 24 22 22 22 21 21 18 17 20 24 25 24 26 25 21 21 18 12 15 18 17 15 15 12
30 27 28 29 29 27 26 25 25 26 25 27 27 27 27 26 25 24 24 21 20 19 19 19 20 22 24 25 25 23 21 20 18 16 16 13 15 13
29 27 28 27 27 27 27 27 28 26 27 27 27 28 29 28 26 25 25 24 24 23 21 19 17 15 17 22 27 23 21 19 17 17 15 17 16 15
26 28 29 30 30 29 28 28 27 28 27 27 27 28 30 30 27 28 28 27 27 26 24 21 17 16 8 10 13 25 27 22 18 18 18 18 15 13
22 25 26 30 31 30 29 28 27 26 28 30 29 29 29 30 29 29 30 26 26 27 25 23 21 21 19 14 11 12 21 21 22 20 19 11 12 14
23 26 27 25 27 29 31 30 27 27 27 29 30 30 29 29 30 28 31 29 29 27 22 22 24 24 18 13 6 8 12 30 21 21 22 18 17 14
25 25 25 27 29 28 25 28 29 28 27 29 30 28 27 29 28 31 31 24 27 28 24 23 24 13 17 18 16 13 15 17 20 21 24 21 22 12
23 25 25 26 27 27 28 29 29 29 27 26 27 27 21 26 23 23 24 24 23 23 23 24 18 16 18 19 18 15 19 16 13 15 24 22 18 11

GFSNE_925_spd_345.txt.gz
Wind_Speed
13 14 15 19 23 12 13 15 10 3 8 7 9 12 9 11 11 10 11 15 20 24 28 33 34 35 36 37 40 43 38 33 31 29 30 31 30 30
10 12 13 12 14 10 6 9 15 12 6 25 13 15 11 10 11 11 12 16 19 21 23 28 33 34 35 37 38 41 40 38 36 34 32 34 33 32
12 11 10 9 12 10 8 12 17 17 12 32 21 14 11 14 14 15 14 15 18 22 22 24 28 32 34 36 36 39 40 41 39 38 35 35 34 34
13 12 11 8 11 12 14 17 20 22 23 22 21 21 15 14 17 17 16 13 16 22 25 21 23 26 30 33 35 38 40 42 45 42 40 37 35 35
14 15 15 13 15 15 16 18 16 17 21 21 21 19 17 15 13 14 14 14 17 22 23 22 20 22 27 28 30 33 39 40 41 43 43 40 37 35
16 16 17 18 19 17 17 18 18 19 20 20 19 22 14 15 15 13 14 12 14 21 21 22 22 22 27 27 28 31 35 39 41 43 43 44 42 41
17 18 18 21 22 22 19 18 15 17 20 21 16 14 18 12 14 11 12 14 18 18 27 20 18 17 19 24 28 31 33 37 40 42 45 45 45 45
19 18 20 20 22 24 24 23 23 19 18 19 17 13 15 12 13 16 15 10 4 12 16 18 16 21 22 20 19 23 28 34 37 40 42 44 46 46
19 19 19 19 18 19 16 17 17 17 20 22 20 17 15 13 15 16 18 15 16 12 7 16 15 20 23 22 24 24 25 23 31 37 41 43 46 47
17 19 20 20 19 17 16 14 14 15 18 19 23 24 20 16 17 21 19 18 18 15 15 13 15 16 18 23 24 25 24 27 26 29 30 36 42 44
20 20 20 21 21 20 20 20 17 18 17 20 23 22 18 19 16 14 15 13 15 13 12 13 9 13 19 24 28 26 29 27 30 33 35 30 28 31
23 22 23 26 25 24 21 21 20 20 17 18 16 19 24 22 23 24 18 18 13 10 11 5 7 9 9 18 29 29 29 30 26 33 35 35 32 30
21 23 22 9 9 22 21 21 24 21 18 19 21 22 20 20 19 24 26 20 16 15 11 3 7 6 2 12 35 27 23 27 29 31 33 32 32 34
19 21 21 22 19 15 16 19 21 24 20 24 27 26 25 26 25 25 28 27 23 24 18 19 13 3 16 27 24 21 47 38 14 17 15 21 27 28
17 19 21 25 24 27 29 31 32 27 28 28 28 27 28 28 26 25 28 24 28 32 20 20 22 27 27 27 23 20 20 16 20 15 13 16 16 17
21 21 23 27 26 28 28 28 27 27 27 27 29 30 29 28 27 25 23 22 22 23 25 26 27 27 27 27 24 21 19 15 7 13 17 15 15 11
31 31 30 29 27 27 27 27 26 26 27 28 30 31 28 27 28 27 26 23 23 23 22 22 27 28 25 24 21 22 21 19 17 16 14 16 17 14
28 30 30 29 28 28 27 27 26 26 27 27 28 25 27 27 26 29 26 28 26 24 24 23 22 18 12 18 24 24 23 21 19 15 15 14 13 16
28 28 27 27 27 28 29 30 29 28 26 25 26 26 27 26 29 30 27 27 27 26 26 24 23 22 10 11 18 15 25 21 19 16 18 19 16 17
25 24 24 24 24 23 25 27 28 29 28 26 26 27 26 26 27 27 27 30 23 21 27 32 29 26 21 14 16 15 21 20 19 20 20 18 17 15
26 28 27 27 26 25 24 23 23 24 26 26 25 26 27 28 25 27 29 28 29 27 27 27 28 26 27 25 15 17 17 19 21 19 20 19 16 13
24 26 27 27 24 25 27 26 23 24 25 25 26 26 28 26 28 27 26 28 26 28 22 25 28 25 21 16 23 17 15 12 22 23 20 20 12 10
27 27 28 25 23 23 26 26 27 25 25 27 25 25 30 28 28 24 24 25 24 23 23 26 24 6 4 10 16 17 19 17 14 14 19 24 24 19